Time,TemperatureF,DewpointF,PressureIn,WindDirection,WindDirectionDegrees,WindSpeedMPH,WindSpeedGustMPH,Humidity,HourlyPrecipIn,Conditions,Clouds,dailyrainin,SoftwareType,DateUTC
2013-10-15 00:01:00,41.4,40.6,30.28,SSW,213,0.0,0.0,97,0.00,,,0.00,Wunderground v.1.15,2013-10-15 04:01:00,
2013-10-15 00:02:00,41.3,40.5,30.27,SSW,212,0.0,0.0,97,0.00,,,0.00,Wunderground v.1.15,2013-10-15 04:02:00,
2013-10-15 00:04:00,41.2,40.4,30.27,SSW,212,0.0,0.0,97,0.00,,,0.00,Wunderground v.1.15,2013-10-15 04:04:00,
2013-10-15 00:10:00,41.0,40.2,30.27,SSW,212,0.0,0.0,97,0.00,,,0.00,Wunderground v.1.15,2013-10-15 04:10:00,
2013-10-15 00:13:00,40.9,40.1,30.28,SSW,212,0.0,0.0,97,0.00,,,0.00,Wunderground v.1.15,2013-10-15 04:13:00,
2013-10-15 00:14:00,40.9,40.1,30.28,SSW,212,0.0,0.0,97,0.00,,,0.00,Wunderground v.1.15,2013-10-15 04:14:00,
2013-10-15 00:16:00,41.0,40.2,30.27,SSW,212,0.0,0.0,97,0.00,,,0.00,Wunderground v.1.15,2013-10-15 04:16:00,
2013-10-15 00:22:00,41.0,40.2,30.27,SSW,212,0.0,0.0,97,0.00,,,0.00,Wunderground v.1.15,2013-10-15 04:22:00,
2013-10-15 00:28:00,40.9,40.1,30.27,SSW,213,0.0,0.0,97,0.00,,,0.00,Wunderground v.1.15,2013-10-15 04:28:00,
2013-10-15 00:34:00,40.7,39.9,30.27,SSW,212,0.0,0.0,97,0.00,,,0.00,Wunderground v.1.15,2013-10-15 04:34:00,
2013-10-15 00:40:00,40.7,39.9,30.27,SSW,213,0.0,0.0,97,0.00,,,0.00,Wunderground v.1.15,2013-10-15 04:40:00,
2013-10-15 00:46:00,40.6,39.8,30.27,SSW,212,0.0,0.0,97,0.00,,,0.00,Wunderground v.1.15,2013-10-15 04:46:00,
2013-10-15 00:52:00,40.4,39.6,30.27,SSW,212,0.0,0.0,97,0.00,,,0.00,Wunderground v.1.15,2013-10-15 04:52:00,
2013-10-15 00:58:00,40.2,39.4,30.28,SSW,212,0.0,0.0,97,0.00,,,0.00,Wunderground v.1.15,2013-10-15 04:58:00,
2013-10-15 01:03:00,40.3,39.5,30.28,SSW,212,0.0,0.0,97,0.00,,,0.00,Wunderground v.1.15,2013-10-15 05:03:00,
2013-10-15 01:09:00,40.1,39.3,30.28,SSW,212,0.0,0.0,97,0.00,,,0.00,Wunderground v.1.15,2013-10-15 05:09:00,
2013-10-15 01:14:00,39.9,39.1,30.28,SSW,212,0.0,0.0,97,0.00,,,0.00,Wunderground v.1.15,2013-10-15 05:14:00,
2013-10-15 01:20:00,39.9,39.1,30.27,SSW,212,0.0,0.0,97,0.00,,,0.00,Wunderground v.1.15,2013-10-15 05:20:00,
2013-10-15 01:26:00,39.8,39.0,30.27,SSW,212,0.0,0.0,97,0.00,,,0.00,Wunderground v.1.15,2013-10-15 05:26:00,
2013-10-15 01:31:00,39.9,39.1,30.27,SSW,212,0.0,0.0,97,0.00,,,0.00,Wunderground v.1.15,2013-10-15 05:31:00,
2013-10-15 01:37:00,39.8,39.0,30.27,SSW,212,0.0,0.0,97,0.00,,,0.00,Wunderground v.1.15,2013-10-15 05:37:00,
2013-10-15 01:43:00,39.8,39.0,30.27,SSW,212,0.0,0.0,97,0.00,,,0.00,Wunderground v.1.15,2013-10-15 05:43:00,
2013-10-15 01:49:00,39.6,38.8,30.27,SSW,212,0.0,0.0,97,0.00,,,0.00,Wunderground v.1.15,2013-10-15 05:49:00,
2013-10-15 01:55:00,39.5,38.7,30.27,SSW,213,0.0,0.0,97,0.00,,,0.00,Wunderground v.1.15,2013-10-15 05:55:00,
2013-10-15 02:01:00,39.3,38.5,30.27,SSW,212,0.0,0.0,97,0.00,,,0.00,Wunderground v.1.15,2013-10-15 06:01:00,
2013-10-15 02:07:00,39.3,38.5,30.27,SSW,212,0.0,0.0,97,0.00,,,0.00,Wunderground v.1.15,2013-10-15 06:07:00,
2013-10-15 02:13:00,39.4,38.6,30.27,SSW,213,0.0,0.0,97,0.00,,,0.00,Wunderground v.1.15,2013-10-15 06:13:00,
2013-10-15 02:18:00,39.3,38.5,30.27,SSW,212,0.0,0.0,97,0.00,,,0.00,Wunderground v.1.15,2013-10-15 06:18:00,
2013-10-15 02:24:00,39.4,38.6,30.27,SSW,212,0.0,0.0,97,0.00,,,0.00,Wunderground v.1.15,2013-10-15 06:24:00,
2013-10-15 02:30:00,39.4,38.6,30.26,SSW,212,0.0,0.0,97,0.00,,,0.00,Wunderground v.1.15,2013-10-15 06:30:00,
2013-10-15 02:36:00,39.2,38.4,30.26,SSW,212,0.0,0.0,97,0.00,,,0.00,Wunderground v.1.15,2013-10-15 06:36:00,
2013-10-15 02:42:00,39.3,38.5,30.26,SSW,212,0.0,0.0,97,0.00,,,0.00,Wunderground v.1.15,2013-10-15 06:42:00,
2013-10-15 02:48:00,39.2,38.4,30.26,SSW,212,0.0,0.0,97,0.00,,,0.00,Wunderground v.1.15,2013-10-15 06:48:00,
2013-10-15 02:54:00,39.0,38.2,30.26,SSW,212,0.0,0.0,97,0.00,,,0.00,Wunderground v.1.15,2013-10-15 06:54:00,
2013-10-15 03:00:00,39.0,38.2,30.26,SSW,212,0.0,0.0,97,0.00,,,0.00,Wunderground v.1.15,2013-10-15 07:00:00,
2013-10-15 03:06:00,38.7,37.9,30.25,SSW,212,0.0,0.0,97,0.00,,,0.00,Wunderground v.1.15,2013-10-15 07:06:00,
2013-10-15 03:12:00,38.5,37.7,30.25,SSW,212,0.0,0.0,97,0.00,,,0.00,Wunderground v.1.15,2013-10-15 07:12:00,
2013-10-15 03:17:00,38.5,37.7,30.25,SSW,212,0.0,0.0,97,0.00,,,0.00,Wunderground v.1.15,2013-10-15 07:17:00,
2013-10-15 03:23:00,38.3,37.5,30.25,SSW,212,0.0,0.0,97,0.00,,,0.00,Wunderground v.1.15,2013-10-15 07:23:00,
2013-10-15 03:28:00,38.3,37.5,30.25,SSW,213,0.0,0.0,97,0.00,,,0.00,Wunderground v.1.15,2013-10-15 07:28:00,
2013-10-15 03:34:00,38.3,37.5,30.25,SSW,212,0.0,0.0,97,0.00,,,0.00,Wunderground v.1.15,2013-10-15 07:34:00,
2013-10-15 03:40:00,38.1,37.3,30.25,SSW,212,0.0,0.0,97,0.00,,,0.00,Wunderground v.1.15,2013-10-15 07:40:00,
2013-10-15 03:46:00,38.1,37.3,30.25,SSW,212,0.0,0.0,97,0.00,,,0.00,Wunderground v.1.15,2013-10-15 07:46:00,
2013-10-15 03:52:00,37.8,37.0,30.25,SSW,213,0.0,0.0,97,0.00,,,0.00,Wunderground v.1.15,2013-10-15 07:52:00,
2013-10-15 03:58:00,37.8,37.0,30.25,SSW,212,0.0,0.0,97,0.00,,,0.00,Wunderground v.1.15,2013-10-15 07:58:00,
2013-10-15 04:03:00,37.7,36.9,30.25,SSW,212,0.0,0.0,97,0.00,,,0.00,Wunderground v.1.15,2013-10-15 08:03:00,
2013-10-15 04:09:00,37.6,36.8,30.26,SSW,212,0.0,0.0,97,0.00,,,0.00,Wunderground v.1.15,2013-10-15 08:09:00,
2013-10-15 04:15:00,37.5,36.7,30.26,SSW,212,0.0,0.0,97,0.00,,,0.00,Wunderground v.1.15,2013-10-15 08:15:00,
2013-10-15 04:21:00,37.4,36.6,30.25,SSW,212,0.0,0.0,97,0.00,,,0.00,Wunderground v.1.15,2013-10-15 08:21:00,
2013-10-15 04:26:00,37.3,36.5,30.25,SSW,212,0.0,0.0,97,0.00,,,0.00,Wunderground v.1.15,2013-10-15 08:26:00,
2013-10-15 04:32:00,37.4,36.6,30.25,SSW,212,0.0,0.0,97,0.00,,,0.00,Wunderground v.1.15,2013-10-15 08:32:00,
2013-10-15 04:38:00,37.2,36.4,30.25,SSW,212,0.0,0.0,97,0.00,,,0.00,Wunderground v.1.15,2013-10-15 08:38:00,
2013-10-15 04:44:00,37.2,36.4,30.25,SSW,212,0.0,0.0,97,0.00,,,0.00,Wunderground v.1.15,2013-10-15 08:44:00,
2013-10-15 04:50:00,37.3,36.5,30.26,SSW,212,0.0,0.0,97,0.00,,,0.00,Wunderground v.1.15,2013-10-15 08:50:00,
2013-10-15 04:56:00,37.1,36.3,30.26,SSW,212,0.0,0.0,97,0.00,,,0.00,Wunderground v.1.15,2013-10-15 08:56:00,
2013-10-15 04:57:00,37.0,36.2,30.26,SSW,212,0.0,0.0,97,0.00,,,0.00,Wunderground v.1.15,2013-10-15 08:57:00,
2013-10-15 05:03:00,36.8,36.0,30.26,SSW,212,0.0,0.0,97,0.00,,,0.00,Wunderground v.1.15,2013-10-15 09:03:00,
2013-10-15 05:08:00,36.7,35.9,30.26,SSW,212,0.0,0.0,97,0.00,,,0.00,Wunderground v.1.15,2013-10-15 09:08:00,
2013-10-15 05:14:00,36.9,36.1,30.26,SSW,212,0.0,0.0,97,0.00,,,0.00,Wunderground v.1.15,2013-10-15 09:14:00,
2013-10-15 05:19:00,36.9,36.1,30.26,SSW,213,0.0,0.0,97,0.00,,,0.00,Wunderground v.1.15,2013-10-15 09:19:00,
2013-10-15 05:25:00,36.8,36.0,30.26,SSW,212,0.0,0.0,97,0.00,,,0.00,Wunderground v.1.15,2013-10-15 09:25:00,
2013-10-15 05:31:00,37.0,36.2,30.26,SSW,212,0.0,0.0,97,0.00,,,0.00,Wunderground v.1.15,2013-10-15 09:31:00,
2013-10-15 05:37:00,37.0,36.2,30.26,SSW,212,0.0,0.0,97,0.00,,,0.00,Wunderground v.1.15,2013-10-15 09:37:00,
2013-10-15 05:43:00,36.9,36.1,30.26,SSW,212,0.0,0.0,97,0.00,,,0.00,Wunderground v.1.15,2013-10-15 09:43:00,
2013-10-15 05:48:00,36.8,36.0,30.26,SSW,212,0.0,0.0,97,0.00,,,0.00,Wunderground v.1.15,2013-10-15 09:48:00,
2013-10-15 05:54:00,36.9,36.1,30.26,SSW,212,0.0,0.0,97,0.00,,,0.00,Wunderground v.1.15,2013-10-15 09:54:00,
2013-10-15 06:00:00,36.8,36.0,30.26,SSW,212,0.0,0.0,97,0.00,,,0.00,Wunderground v.1.15,2013-10-15 10:00:00,
2013-10-15 06:06:00,36.8,36.0,30.26,SSW,212,0.0,0.0,97,0.00,,,0.00,Wunderground v.1.15,2013-10-15 10:06:00,
2013-10-15 06:12:00,36.8,36.0,30.26,SSW,212,0.0,0.0,97,0.00,,,0.00,Wunderground v.1.15,2013-10-15 10:12:00,
2013-10-15 06:18:00,36.9,36.1,30.26,SSW,213,0.0,0.0,97,0.00,,,0.00,Wunderground v.1.15,2013-10-15 10:18:00,
2013-10-15 06:24:00,36.8,36.0,30.26,SSW,212,0.0,0.0,97,0.00,,,0.00,Wunderground v.1.15,2013-10-15 10:24:00,
2013-10-15 06:30:00,36.7,35.9,30.26,SSW,212,0.0,0.0,97,0.00,,,0.00,Wunderground v.1.15,2013-10-15 10:30:00,
2013-10-15 06:36:00,36.8,36.0,30.26,SSW,212,0.0,0.0,97,0.00,,,0.00,Wunderground v.1.15,2013-10-15 10:36:00,
2013-10-15 06:42:00,36.8,36.0,30.26,SSW,212,0.0,0.0,97,0.00,,,0.00,Wunderground v.1.15,2013-10-15 10:42:00,
2013-10-15 06:48:00,36.8,36.0,30.26,SSW,212,0.0,0.0,97,0.00,,,0.00,Wunderground v.1.15,2013-10-15 10:48:00,
2013-10-15 06:54:00,36.9,36.1,30.26,SSW,212,0.0,0.0,97,0.00,,,0.00,Wunderground v.1.15,2013-10-15 10:54:00,
2013-10-15 07:00:00,36.9,36.1,30.26,SSW,212,0.0,0.0,97,0.00,,,0.00,Wunderground v.1.15,2013-10-15 11:00:00,
2013-10-15 07:06:00,36.8,36.0,30.26,SSW,212,0.0,0.0,97,0.00,,,0.00,Wunderground v.1.15,2013-10-15 11:06:00,
2013-10-15 07:11:00,36.7,35.9,30.26,SSW,212,0.0,0.0,97,0.00,,,0.00,Wunderground v.1.15,2013-10-15 11:11:00,
2013-10-15 07:17:00,36.7,35.9,30.26,SSW,213,0.0,0.0,97,0.00,,,0.00,Wunderground v.1.15,2013-10-15 11:17:00,
2013-10-15 07:23:00,37.2,36.7,30.26,SSW,213,0.0,0.0,98,0.00,,,0.01,Wunderground v.1.15,2013-10-15 11:23:00,
2013-10-15 07:29:00,37.6,37.1,30.27,SSW,212,0.0,0.0,98,0.00,,,0.01,Wunderground v.1.15,2013-10-15 11:29:00,
2013-10-15 07:35:00,37.7,37.2,30.27,SSW,212,0.0,0.0,98,0.00,,,0.01,Wunderground v.1.15,2013-10-15 11:35:00,
2013-10-15 07:41:00,37.9,37.4,30.27,SSW,212,0.0,0.0,98,0.00,,,0.01,Wunderground v.1.15,2013-10-15 11:41:00,
2013-10-15 07:47:00,38.0,37.5,30.27,SSW,212,0.0,0.0,98,0.00,,,0.01,Wunderground v.1.15,2013-10-15 11:47:00,
2013-10-15 07:53:00,38.3,37.8,30.26,SSW,212,0.0,0.0,98,0.00,,,0.01,Wunderground v.1.15,2013-10-15 11:53:00,
2013-10-15 07:59:00,38.9,38.4,30.27,SSW,212,0.0,0.0,98,0.00,,,0.01,Wunderground v.1.15,2013-10-15 11:59:00,
2013-10-15 08:04:00,40.4,39.9,30.27,SSW,212,0.0,0.0,98,0.00,,,0.01,Wunderground v.1.15,2013-10-15 12:04:00,
2013-10-15 08:10:00,41.1,40.6,30.27,South,189,0.0,0.0,98,0.00,,,0.01,Wunderground v.1.15,2013-10-15 12:10:00,
2013-10-15 08:16:00,42.2,41.7,30.27,South,188,0.0,0.0,98,0.00,,,0.01,Wunderground v.1.15,2013-10-15 12:16:00,
2013-10-15 08:22:00,43.1,42.6,30.27,South,188,0.0,0.0,98,0.00,,,0.01,Wunderground v.1.15,2013-10-15 12:22:00,
2013-10-15 08:27:00,43.9,43.4,30.27,South,188,0.0,0.0,98,0.00,,,0.01,Wunderground v.1.15,2013-10-15 12:27:00,
2013-10-15 08:33:00,44.8,44.3,30.27,South,188,0.0,0.0,98,0.00,,,0.01,Wunderground v.1.15,2013-10-15 12:33:00,
2013-10-15 08:39:00,45.2,44.7,30.26,South,188,0.0,0.0,98,0.00,,,0.01,Wunderground v.1.15,2013-10-15 12:39:00,
2013-10-15 08:44:00,46.1,45.6,30.26,South,188,0.0,0.0,98,0.00,,,0.01,Wunderground v.1.15,2013-10-15 12:44:00,
2013-10-15 08:50:00,46.9,46.4,30.26,South,188,0.0,0.0,98,0.00,,,0.01,Wunderground v.1.15,2013-10-15 12:50:00,
2013-10-15 08:56:00,47.8,47.3,30.26,SSE,165,0.0,0.0,98,0.00,,,0.01,Wunderground v.1.15,2013-10-15 12:56:00,
2013-10-15 09:02:00,48.7,48.2,30.26,SSE,167,0.0,0.0,98,0.00,,,0.01,Wunderground v.1.15,2013-10-15 13:02:00,
2013-10-15 09:07:00,49.1,48.6,30.26,SE,131,0.0,0.0,98,0.00,,,0.01,Wunderground v.1.15,2013-10-15 13:07:00,
2013-10-15 09:12:00,49.9,49.1,30.26,SE,131,0.0,0.0,97,0.00,,,0.01,Wunderground v.1.15,2013-10-15 13:12:00,
2013-10-15 09:18:00,50.5,49.7,30.25,SE,131,0.0,0.0,97,0.00,,,0.01,Wunderground v.1.15,2013-10-15 13:18:00,
2013-10-15 09:24:00,51.5,50.7,30.26,SE,131,0.0,0.0,97,0.00,,,0.01,Wunderground v.1.15,2013-10-15 13:24:00,
2013-10-15 09:30:00,52.8,52.0,30.26,SW,228,0.0,0.0,97,0.00,,,0.01,Wunderground v.1.15,2013-10-15 13:30:00,
2013-10-15 09:36:00,53.9,52.8,30.26,SE,129,0.0,0.0,96,0.00,,,0.01,Wunderground v.1.15,2013-10-15 13:36:00,
2013-10-15 09:42:00,55.0,53.6,30.26,SSW,212,0.0,0.0,95,0.00,,,0.01,Wunderground v.1.15,2013-10-15 13:42:00,
2013-10-15 09:47:00,56.2,54.8,30.26,ESE,110,0.0,0.0,95,0.00,,,0.01,Wunderground v.1.15,2013-10-15 13:47:00,
2013-10-15 09:53:00,56.6,54.3,30.26,ESE,118,0.0,0.0,92,0.00,,,0.01,Wunderground v.1.15,2013-10-15 13:53:00,
2013-10-15 09:59:00,57.5,54.3,30.26,SE,134,0.0,2.0,89,0.00,,,0.01,Wunderground v.1.15,2013-10-15 13:59:00,
2013-10-15 10:04:00,58.3,54.1,30.26,WSW,238,1.0,3.0,86,0.00,,,0.01,Wunderground v.1.15,2013-10-15 14:04:00,
2013-10-15 10:10:00,59.4,54.2,30.25,SE,134,1.0,1.0,83,0.00,,,0.01,Wunderground v.1.15,2013-10-15 14:10:00,
2013-10-15 10:15:00,60.3,54.8,30.25,SSE,153,1.0,1.0,82,0.00,,,0.01,Wunderground v.1.15,2013-10-15 14:15:00,
2013-10-15 10:21:00,61.1,54.2,30.25,West,281,1.0,1.0,78,0.00,,,0.01,Wunderground v.1.15,2013-10-15 14:21:00,
2013-10-15 10:26:00,61.9,55.3,30.25,NNE,25,1.0,1.0,79,0.00,,,0.01,Wunderground v.1.15,2013-10-15 14:26:00,
2013-10-15 10:31:00,62.3,54.3,30.25,ENE,63,1.0,3.0,75,0.00,,,0.01,Wunderground v.1.15,2013-10-15 14:31:00,
2013-10-15 10:36:00,62.9,51.8,30.25,SE,127,2.0,3.0,67,0.00,,,0.01,Wunderground v.1.15,2013-10-15 14:36:00,
2013-10-15 10:42:00,63.6,51.2,30.25,NNE,18,2.0,2.0,64,0.00,,,0.01,Wunderground v.1.15,2013-10-15 14:42:00,
2013-10-15 10:47:00,64.1,51.2,30.25,SE,131,1.0,3.0,63,0.00,,,0.01,Wunderground v.1.15,2013-10-15 14:47:00,
2013-10-15 10:53:00,64.6,51.3,30.25,ENE,72,1.0,3.0,62,0.00,,,0.01,Wunderground v.1.15,2013-10-15 14:53:00,
2013-10-15 10:58:00,64.8,51.9,30.25,ENE,66,2.0,4.0,63,0.00,,,0.01,Wunderground v.1.15,2013-10-15 14:58:00,
2013-10-15 11:04:00,65.0,51.2,30.25,SSE,156,2.0,3.0,61,0.00,,,0.01,Wunderground v.1.15,2013-10-15 15:04:00,
2013-10-15 11:10:00,65.4,50.7,30.25,SSW,201,2.0,2.0,59,0.00,,,0.01,Wunderground v.1.15,2013-10-15 15:10:00,
2013-10-15 11:15:00,65.8,49.7,30.25,SE,138,3.0,6.0,56,0.00,,,0.01,Wunderground v.1.15,2013-10-15 15:15:00,
2013-10-15 11:21:00,65.5,49.4,30.25,SSE,156,3.0,4.0,56,0.00,,,0.01,Wunderground v.1.15,2013-10-15 15:21:00,
2013-10-15 11:27:00,65.4,47.8,30.25,ENE,71,3.0,5.0,53,0.00,,,0.01,Wunderground v.1.15,2013-10-15 15:27:00,
2013-10-15 11:33:00,65.9,50.2,30.25,NNE,27,3.0,5.0,57,0.00,,,0.01,Wunderground v.1.15,2013-10-15 15:33:00,
2013-10-15 11:39:00,65.9,49.3,30.24,NNE,30,2.0,5.0,55,0.00,,,0.01,Wunderground v.1.15,2013-10-15 15:39:00,
2013-10-15 11:45:00,66.4,48.7,30.25,SW,215,2.0,3.0,53,0.00,,,0.01,Wunderground v.1.15,2013-10-15 15:45:00,
2013-10-15 11:51:00,66.8,51.1,30.25,ESE,111,3.0,3.0,57,0.00,,,0.01,Wunderground v.1.15,2013-10-15 15:51:00,
2013-10-15 11:57:00,67.0,48.8,30.24,ENE,72,3.0,6.0,52,0.00,,,0.01,Wunderground v.1.15,2013-10-15 15:57:00,
2013-10-15 12:03:00,67.0,48.3,30.25,North,7,3.0,4.0,51,0.00,,,0.01,Wunderground v.1.15,2013-10-15 16:03:00,
2013-10-15 12:09:00,67.4,49.2,30.24,NE,34,2.0,4.0,52,0.00,,,0.01,Wunderground v.1.15,2013-10-15 16:09:00,
2013-10-15 12:15:00,67.0,47.7,30.24,NE,49,3.0,11.0,50,0.00,,,0.01,Wunderground v.1.15,2013-10-15 16:15:00,
2013-10-15 12:21:00,66.9,48.7,30.24,NE,52,4.0,4.0,52,0.00,,,0.01,Wunderground v.1.15,2013-10-15 16:21:00,
2013-10-15 12:27:00,67.1,49.4,30.23,ENE,74,3.0,5.0,53,0.00,,,0.01,Wunderground v.1.15,2013-10-15 16:27:00,
2013-10-15 12:32:00,67.2,47.4,30.23,NE,53,3.0,4.0,49,0.00,,,0.01,Wunderground v.1.15,2013-10-15 16:32:00,
2013-10-15 12:38:00,67.3,49.1,30.23,East,100,4.0,6.0,52,0.00,,,0.01,Wunderground v.1.15,2013-10-15 16:38:00,
2013-10-15 12:44:00,67.4,48.6,30.23,East,83,3.0,4.0,51,0.00,,,0.01,Wunderground v.1.15,2013-10-15 16:44:00,
2013-10-15 12:50:00,67.7,49.4,30.22,NW,316,2.0,2.0,52,0.00,,,0.01,Wunderground v.1.15,2013-10-15 16:50:00,
2013-10-15 12:56:00,67.9,48.6,30.22,NE,55,2.0,5.0,50,0.00,,,0.01,Wunderground v.1.15,2013-10-15 16:56:00,
2013-10-15 13:02:00,68.5,50.2,30.21,ESE,102,3.0,5.0,52,0.00,,,0.01,Wunderground v.1.15,2013-10-15 17:02:00,
2013-10-15 13:08:00,68.7,50.4,30.21,ENE,75,3.0,5.0,52,0.00,,,0.01,Wunderground v.1.15,2013-10-15 17:08:00,
2013-10-15 13:14:00,68.5,52.2,30.21,ENE,69,2.0,4.0,56,0.00,,,0.01,Wunderground v.1.15,2013-10-15 17:14:00,
2013-10-15 13:19:00,68.5,51.2,30.21,East,79,3.0,6.0,54,0.00,,,0.01,Wunderground v.1.15,2013-10-15 17:19:00,
2013-10-15 13:25:00,68.6,52.8,30.21,NE,47,3.0,4.0,57,0.00,,,0.01,Wunderground v.1.15,2013-10-15 17:25:00,
2013-10-15 13:30:00,69.2,52.3,30.20,NE,43,2.0,6.0,55,0.00,,,0.01,Wunderground v.1.15,2013-10-15 17:30:00,
2013-10-15 13:36:00,69.3,52.4,30.20,ESE,107,3.0,6.0,55,0.00,,,0.01,Wunderground v.1.15,2013-10-15 17:36:00,
2013-10-15 13:42:00,69.2,52.8,30.20,SE,126,3.0,6.0,56,0.00,,,0.01,Wunderground v.1.15,2013-10-15 17:42:00,
2013-10-15 13:48:00,69.6,51.2,30.20,South,183,2.0,6.0,52,0.00,,,0.01,Wunderground v.1.15,2013-10-15 17:48:00,
2013-10-15 13:54:00,69.6,50.7,30.20,NNW,345,2.0,4.0,51,0.00,,,0.01,Wunderground v.1.15,2013-10-15 17:54:00,
2013-10-15 14:00:00,69.9,52.0,30.20,ESE,107,2.0,4.0,53,0.00,,,0.01,Wunderground v.1.15,2013-10-15 18:00:00,
2013-10-15 14:05:00,69.9,52.0,30.19,SE,134,2.0,4.0,53,0.00,,,0.01,Wunderground v.1.15,2013-10-15 18:05:00,
2013-10-15 14:11:00,70.2,50.7,30.19,ESE,107,2.0,4.0,50,0.00,,,0.01,Wunderground v.1.15,2013-10-15 18:11:00,
2013-10-15 14:17:00,70.0,52.1,30.19,ENE,62,2.0,4.0,53,0.00,,,0.01,Wunderground v.1.15,2013-10-15 18:17:00,
2013-10-15 14:23:00,69.9,52.5,30.19,WSW,240,2.0,4.0,54,0.00,,,0.01,Wunderground v.1.15,2013-10-15 18:23:00,
2013-10-15 14:29:00,71.0,54.5,30.19,SSE,162,1.0,4.0,56,0.00,,,0.01,Wunderground v.1.15,2013-10-15 18:29:00,
2013-10-15 14:34:00,70.5,52.5,30.19,North,356,3.0,7.0,53,0.00,,,0.01,Wunderground v.1.15,2013-10-15 18:34:00,
2013-10-15 14:39:00,69.4,52.5,30.19,ENE,60,4.0,7.0,55,0.00,,,0.01,Wunderground v.1.15,2013-10-15 18:39:00,
2013-10-15 14:45:00,69.2,52.8,30.19,North,11,4.0,6.0,56,0.00,,,0.01,Wunderground v.1.15,2013-10-15 18:45:00,
2013-10-15 14:51:00,69.2,52.8,30.19,ENE,76,4.0,5.0,56,0.00,,,0.01,Wunderground v.1.15,2013-10-15 18:51:00,
2013-10-15 14:57:00,69.6,52.2,30.19,SE,139,3.0,5.0,54,0.00,,,0.01,Wunderground v.1.15,2013-10-15 18:57:00,
2013-10-15 15:02:00,70.1,52.2,30.18,ESE,112,2.0,4.0,53,0.00,,,0.01,Wunderground v.1.15,2013-10-15 19:02:00,
2013-10-15 15:08:00,69.7,53.3,30.18,SE,138,3.0,6.0,56,0.00,,,0.01,Wunderground v.1.15,2013-10-15 19:08:00,
2013-10-15 15:14:00,69.8,53.4,30.18,ENE,60,3.0,4.0,56,0.00,,,0.01,Wunderground v.1.15,2013-10-15 19:14:00,
2013-10-15 15:20:00,70.1,53.2,30.18,SSW,193,3.0,3.0,55,0.00,,,0.01,Wunderground v.1.15,2013-10-15 19:20:00,
2013-10-15 15:26:00,69.5,53.6,30.18,East,89,4.0,8.0,57,0.00,,,0.01,Wunderground v.1.15,2013-10-15 19:26:00,
2013-10-15 15:32:00,69.6,53.7,30.18,ENE,74,4.0,4.0,57,0.00,,,0.01,Wunderground v.1.15,2013-10-15 19:32:00,
2013-10-15 15:38:00,69.3,52.9,30.18,SSW,212,3.0,4.0,56,0.00,,,0.01,Wunderground v.1.15,2013-10-15 19:38:00,
2013-10-15 15:44:00,69.6,52.7,30.18,NE,44,2.0,5.0,55,0.00,,,0.01,Wunderground v.1.15,2013-10-15 19:44:00,
2013-10-15 15:50:00,69.9,53.5,30.17,ENE,71,2.0,4.0,56,0.00,,,0.01,Wunderground v.1.15,2013-10-15 19:50:00,
2013-10-15 15:56:00,69.6,53.2,30.17,SE,138,1.0,4.0,56,0.00,,,0.01,Wunderground v.1.15,2013-10-15 19:56:00,
2013-10-15 16:02:00,69.8,53.4,30.17,South,184,1.0,6.0,56,0.00,,,0.01,Wunderground v.1.15,2013-10-15 20:02:00,
2013-10-15 16:08:00,69.6,53.2,30.17,SE,125,2.0,6.0,56,0.00,,,0.01,Wunderground v.1.15,2013-10-15 20:08:00,
2013-10-15 16:14:00,69.5,52.6,30.17,SE,145,2.0,6.0,55,0.00,,,0.01,Wunderground v.1.15,2013-10-15 20:14:00,
2013-10-15 16:19:00,69.1,53.2,30.17,SE,145,3.0,6.0,57,0.00,,,0.01,Wunderground v.1.15,2013-10-15 20:19:00,
2013-10-15 16:25:00,68.8,52.9,30.17,SE,145,2.0,4.0,57,0.00,,,0.01,Wunderground v.1.15,2013-10-15 20:25:00,
2013-10-15 16:31:00,68.8,53.4,30.16,SE,133,2.0,4.0,58,0.00,,,0.01,Wunderground v.1.15,2013-10-15 20:31:00,
2013-10-15 16:37:00,68.2,52.9,30.16,ESE,122,3.0,7.0,58,0.00,,,0.01,Wunderground v.1.15,2013-10-15 20:37:00,
2013-10-15 16:43:00,68.0,52.2,30.16,SE,143,3.0,5.0,57,0.00,,,0.01,Wunderground v.1.15,2013-10-15 20:43:00,
2013-10-15 16:49:00,67.6,51.3,30.17,SE,145,3.0,5.0,56,0.00,,,0.01,Wunderground v.1.15,2013-10-15 20:49:00,
2013-10-15 16:55:00,67.2,51.9,30.17,ESE,110,2.0,4.0,58,0.00,,,0.01,Wunderground v.1.15,2013-10-15 20:55:00,
2013-10-15 17:01:00,66.8,51.5,30.17,ESE,110,2.0,4.0,58,0.00,,,0.01,Wunderground v.1.15,2013-10-15 21:01:00,
2013-10-15 17:07:00,66.1,51.4,30.17,SE,128,3.0,4.0,59,0.00,,,0.01,Wunderground v.1.15,2013-10-15 21:07:00,
2013-10-15 17:13:00,65.6,51.3,30.17,SE,136,3.0,4.0,60,0.00,,,0.01,Wunderground v.1.15,2013-10-15 21:13:00,
2013-10-15 17:19:00,65.3,51.5,30.17,SE,133,2.0,4.0,61,0.00,,,0.01,Wunderground v.1.15,2013-10-15 21:19:00,
2013-10-15 17:25:00,65.0,51.2,30.17,East,84,1.0,4.0,61,0.00,,,0.01,Wunderground v.1.15,2013-10-15 21:25:00,
2013-10-15 17:30:00,64.6,51.7,30.17,South,187,1.0,4.0,63,0.00,,,0.01,Wunderground v.1.15,2013-10-15 21:30:00,
2013-10-15 17:36:00,64.5,51.6,30.17,South,180,1.0,4.0,63,0.00,,,0.01,Wunderground v.1.15,2013-10-15 21:36:00,
2013-10-15 17:42:00,63.8,51.4,30.17,SE,134,1.0,4.0,64,0.00,,,0.01,Wunderground v.1.15,2013-10-15 21:42:00,
2013-10-15 17:48:00,62.8,50.4,30.17,SE,131,1.0,4.0,64,0.00,,,0.01,Wunderground v.1.15,2013-10-15 21:48:00,
2013-10-15 17:53:00,62.1,50.2,30.17,SSE,156,1.0,4.0,65,0.00,,,0.01,Wunderground v.1.15,2013-10-15 21:53:00,
2013-10-15 17:59:00,61.3,49.8,30.17,SSW,194,0.0,4.0,66,0.00,,,0.01,Wunderground v.1.15,2013-10-15 21:59:00,
2013-10-15 18:05:00,60.4,49.8,30.17,SSW,195,0.0,4.0,68,0.00,,,0.01,Wunderground v.1.15,2013-10-15 22:05:00,
2013-10-15 18:11:00,59.3,49.9,30.17,SSW,194,0.0,4.0,71,0.00,,,0.01,Wunderground v.1.15,2013-10-15 22:11:00,
2013-10-15 18:17:00,58.2,49.6,30.17,SSW,194,0.0,4.0,73,0.00,,,0.01,Wunderground v.1.15,2013-10-15 22:17:00,
2013-10-15 18:23:00,57.4,49.9,30.17,SSW,195,0.0,4.0,76,0.00,,,0.01,Wunderground v.1.15,2013-10-15 22:23:00,
2013-10-15 18:28:00,56.5,49.7,30.17,SSW,195,0.0,4.0,78,0.00,,,0.01,Wunderground v.1.15,2013-10-15 22:28:00,
2013-10-15 18:34:00,55.8,49.4,30.18,SSW,194,0.0,4.0,79,0.00,,,0.01,Wunderground v.1.15,2013-10-15 22:34:00,
2013-10-15 18:40:00,55.1,49.7,30.18,SSW,195,0.0,4.0,82,0.00,,,0.01,Wunderground v.1.15,2013-10-15 22:40:00,
2013-10-15 18:46:00,54.6,49.5,30.18,SSW,194,0.0,4.0,83,0.00,,,0.01,Wunderground v.1.15,2013-10-15 22:46:00,
2013-10-15 18:52:00,54.1,49.4,30.18,SSW,194,0.0,4.0,84,0.00,,,0.01,Wunderground v.1.15,2013-10-15 22:52:00,
2013-10-15 18:58:00,53.6,49.2,30.19,SSW,195,0.0,4.0,85,0.00,,,0.01,Wunderground v.1.15,2013-10-15 22:58:00,
2013-10-15 19:03:00,53.2,49.1,30.19,SSW,194,0.0,4.0,86,0.00,,,0.01,Wunderground v.1.15,2013-10-15 23:03:00,
2013-10-15 19:09:00,52.6,48.8,30.18,SSW,194,0.0,4.0,87,0.00,,,0.01,Wunderground v.1.15,2013-10-15 23:09:00,
2013-10-15 19:15:00,52.2,48.8,30.18,SSW,194,0.0,4.0,88,0.00,,,0.01,Wunderground v.1.15,2013-10-15 23:15:00,
2013-10-15 19:21:00,51.9,48.8,30.18,SSW,194,0.0,4.0,89,0.00,,,0.01,Wunderground v.1.15,2013-10-15 23:21:00,
2013-10-15 19:27:00,51.6,48.8,30.18,SSW,194,0.0,4.0,90,0.00,,,0.01,Wunderground v.1.15,2013-10-15 23:27:00,
2013-10-15 19:33:00,51.2,48.4,30.18,SSW,194,0.0,4.0,90,0.00,,,0.01,Wunderground v.1.15,2013-10-15 23:33:00,
2013-10-15 19:39:00,51.0,48.5,30.18,SSW,194,0.0,4.0,91,0.00,,,0.01,Wunderground v.1.15,2013-10-15 23:39:00,
2013-10-15 19:45:00,50.8,48.3,30.18,SSW,195,0.0,4.0,91,0.00,,,0.01,Wunderground v.1.15,2013-10-15 23:45:00,
2013-10-15 19:50:00,50.5,48.0,30.18,SSW,194,0.0,4.0,91,0.00,,,0.01,Wunderground v.1.15,2013-10-15 23:50:00,
2013-10-15 19:56:00,50.1,47.9,30.18,SSW,194,0.0,4.0,92,0.00,,,0.01,Wunderground v.1.15,2013-10-15 23:56:00,
2013-10-15 20:02:00,49.7,47.5,30.18,SSW,195,0.0,4.0,92,0.00,,,0.01,Wunderground v.1.15,2013-10-16 00:02:00,
2013-10-15 20:08:00,49.3,47.1,30.18,SSW,194,0.0,4.0,92,0.00,,,0.01,Wunderground v.1.15,2013-10-16 00:08:00,
2013-10-15 20:13:00,49.3,47.4,30.19,SSW,194,0.0,4.0,93,0.00,,,0.01,Wunderground v.1.15,2013-10-16 00:13:00,
2013-10-15 20:19:00,49.3,47.6,30.19,SSW,194,0.0,4.0,94,0.00,,,0.01,Wunderground v.1.15,2013-10-16 00:19:00,
2013-10-15 20:25:00,49.2,47.5,30.19,SSW,195,0.0,4.0,94,0.00,,,0.01,Wunderground v.1.15,2013-10-16 00:25:00,
2013-10-15 20:30:00,49.0,47.3,30.19,SSW,195,0.0,4.0,94,0.00,,,0.01,Wunderground v.1.15,2013-10-16 00:30:00,
2013-10-15 20:36:00,48.8,47.2,30.19,SSW,195,0.0,4.0,94,0.00,,,0.01,Wunderground v.1.15,2013-10-16 00:36:00,
2013-10-15 20:42:00,48.9,47.5,30.19,SSW,194,0.0,4.0,95,0.00,,,0.01,Wunderground v.1.15,2013-10-16 00:42:00,
2013-10-15 20:48:00,48.9,47.5,30.19,SSW,194,0.0,4.0,95,0.00,,,0.01,Wunderground v.1.15,2013-10-16 00:48:00,
2013-10-15 20:54:00,48.5,46.9,30.20,SSW,194,0.0,4.0,94,0.00,,,0.01,Wunderground v.1.15,2013-10-16 00:54:00,
2013-10-15 21:00:00,48.2,46.8,30.19,SSW,194,0.0,4.0,95,0.00,,,0.01,Wunderground v.1.15,2013-10-16 01:00:00,
2013-10-15 21:06:00,48.3,46.9,30.19,SSW,195,0.0,4.0,95,0.00,,,0.01,Wunderground v.1.15,2013-10-16 01:06:00,
2013-10-15 21:11:00,48.2,46.8,30.19,SSW,195,0.0,4.0,95,0.00,,,0.01,Wunderground v.1.15,2013-10-16 01:11:00,
2013-10-15 21:16:00,48.1,46.7,30.19,SSW,195,0.0,4.0,95,0.00,,,0.01,Wunderground v.1.15,2013-10-16 01:16:00,
2013-10-15 21:22:00,48.0,46.6,30.19,SSW,194,0.0,4.0,95,0.00,,,0.01,Wunderground v.1.15,2013-10-16 01:22:00,
2013-10-15 21:28:00,47.5,46.1,30.19,SSW,195,0.0,4.0,95,0.00,,,0.01,Wunderground v.1.15,2013-10-16 01:28:00,
2013-10-15 21:34:00,47.3,45.9,30.19,SSW,194,0.0,4.0,95,0.00,,,0.01,Wunderground v.1.15,2013-10-16 01:34:00,
2013-10-15 21:40:00,47.2,45.8,30.19,SSW,194,0.0,4.0,95,0.00,,,0.01,Wunderground v.1.15,2013-10-16 01:40:00,
2013-10-15 21:46:00,47.0,45.6,30.19,SSW,195,0.0,4.0,95,0.00,,,0.01,Wunderground v.1.15,2013-10-16 01:46:00,
2013-10-15 21:52:00,46.7,45.6,30.19,SSW,194,0.0,4.0,96,0.00,,,0.01,Wunderground v.1.15,2013-10-16 01:52:00,
2013-10-15 21:58:00,46.7,45.6,30.19,SSW,195,0.0,4.0,96,0.00,,,0.01,Wunderground v.1.15,2013-10-16 01:58:00,
2013-10-15 22:04:00,46.4,45.3,30.18,SSW,194,0.0,4.0,96,0.00,,,0.01,Wunderground v.1.15,2013-10-16 02:04:00,
2013-10-15 22:10:00,46.0,44.9,30.18,SSW,194,0.0,4.0,96,0.00,,,0.01,Wunderground v.1.15,2013-10-16 02:10:00,
2013-10-15 22:16:00,45.9,44.8,30.18,SSW,195,0.0,4.0,96,0.00,,,0.01,Wunderground v.1.15,2013-10-16 02:16:00,
2013-10-15 22:22:00,46.0,44.9,30.18,SSW,194,0.0,4.0,96,0.00,,,0.01,Wunderground v.1.15,2013-10-16 02:22:00,
2013-10-15 22:28:00,45.7,44.6,30.18,SSW,194,0.0,4.0,96,0.00,,,0.01,Wunderground v.1.15,2013-10-16 02:28:00,
2013-10-15 22:34:00,45.5,44.4,30.18,SSW,195,0.0,4.0,96,0.00,,,0.01,Wunderground v.1.15,2013-10-16 02:34:00,
2013-10-15 22:39:00,45.3,44.2,30.18,SSW,194,0.0,4.0,96,0.00,,,0.01,Wunderground v.1.15,2013-10-16 02:39:00,
2013-10-15 22:45:00,45.1,44.0,30.18,SSW,194,0.0,4.0,96,0.00,,,0.01,Wunderground v.1.15,2013-10-16 02:45:00,
2013-10-15 22:51:00,45.1,44.0,30.18,SSW,195,0.0,4.0,96,0.00,,,0.01,Wunderground v.1.15,2013-10-16 02:51:00,
2013-10-15 22:56:00,45.1,44.0,30.18,SSW,195,0.0,4.0,96,0.00,,,0.01,Wunderground v.1.15,2013-10-16 02:56:00,
2013-10-15 23:02:00,45.3,44.2,30.18,SSW,194,0.0,4.0,96,0.00,,,0.01,Wunderground v.1.15,2013-10-16 03:02:00,
2013-10-15 23:08:00,45.5,44.7,30.18,SSW,194,0.0,4.0,97,0.00,,,0.01,Wunderground v.1.15,2013-10-16 03:08:00,
2013-10-15 23:14:00,45.7,44.9,30.17,SSW,194,0.0,0.0,97,0.00,,,0.01,Wunderground v.1.15,2013-10-16 03:14:00,
2013-10-15 23:19:00,45.7,44.9,30.17,SSW,195,0.0,0.0,97,0.00,,,0.01,Wunderground v.1.15,2013-10-16 03:19:00,
2013-10-15 23:25:00,45.7,44.9,30.17,SSW,194,0.0,0.0,97,0.00,,,0.01,Wunderground v.1.15,2013-10-16 03:25:00,
2013-10-15 23:31:00,45.5,44.4,30.17,SSW,197,0.0,0.0,96,0.00,,,0.01,Wunderground v.1.15,2013-10-16 03:31:00,